Regional Weather Roundup
Issued by NWS

Home | Current Version | Previous Version | Graphics & Text | Print | Product List | Glossary On
Versions: 1 2 3 4 5 6 7 8 9 10 11 12 13 14 15 16 17 18 19 20 21 22 23 24 25 26 27 28 29 30 31 32 33 34 35 36 37 38 39 40 41 42 43 44 45 46 47 48 49 50
000
ASUS43 KDMX 310003
RWRIA

WEATHER ROUNDUP FOR IOWA
NATIONAL WEATHER SERVICE DES MOINES IA
700 PM CDT MON MAY 30 2016

NOTE: "FAIR" INDICATES FEW OR NO CLOUDS BELOW 12,000 FEET WITH NO
SIGNIFICANT WEATHER AND/OR OBSTRUCTIONS TO VISIBILITY.

* - THESE STATIONS ARE NOT NWS STATIONS...THUS NOT UNDER NWS
QUALITY CONTROL.  THEY ALSO DO NOT REPORT WEATHER SUCH
AS PRECIPITATION OR FOG.

IAZ001>003-012>014-020>022-031>034-043>046-310100-
   NORTHWEST IOWA

CITY           SKY/WX    TMP DP  RH WIND       PRES   REMARKS
CARROLL *      PTSUNNY   79  61  53 SW23G29   29.88R HX  80
CHEROKEE *     SUNNY     82  55  39 S10       29.82S HX  81
DENISON *      DRIZZLE   68  63  83 SW15G21   29.86R
LE MARS *      SUNNY     84  59  42 S15       29.80S HX  84
ORANGE CITY *  SUNNY     82  57  42 S14       29.81F HX  82
SHELDON *      SUNNY     82  54  36 S10       29.80F HX  81
SIOUX CITY     PTSUNNY   86  59  39 S10       29.79F HX  85
6HR MIN TEMP:  82; 6HR MAX TEMP:  88;

SPENCER        SUNNY     83  54  36 S7        29.83F HX  82
6HR MIN TEMP:  79; 6HR MAX TEMP:  85;

STORM LAKE *   SUNNY     86  52  30 SW13      29.85S HX  84
$$

IAZ055>058-069>071-079>083-090>094-310100-
   SOUTHWEST IOWA

CITY           SKY/WX    TMP DP  RH WIND       PRES   REMARKS
ATLANTIC *     LGT RAIN  70  61  73 S18       29.88S
AUDUBON *      CLOUDY    73  59  60 SW8G16    29.91S
CLARINDA *       N/A     66  61  82 MISG      29.96F
COUNCIL BLFS * LGT RAIN  68  63  83 SE8       29.89F
CRESTON *      CLOUDY    72  59  64 SW16G32   29.97R
HARLAN  *      CLOUDY    72  59  64 S13G21    29.92R
LAMONI         CLOUDY    74  63  68 SW10      29.95R
6HR MIN TEMP:  74; 6HR MAX TEMP:  85;

RED OAK *      CLOUDY    68  61  77 SE18G29   29.92S
SHENANDOAH *   CLOUDY    68  63  83 E8        29.93R
$$

IAZ047>049-059>061-072>074-084-310100-
   CENTRAL IOWA

CITY           SKY/WX    TMP DP  RH WIND       PRES   REMARKS
AMES           LGT RAIN  73  61  65 W21G28    29.90S
6HR MIN TEMP:  71; 6HR MAX TEMP:  87; 6HR PCP:  0.03;

ANKENY *       MOSUNNY   82  61  47 S9        29.88S HX  83
BOONE *        LGT RAIN  70  59  68 SW6G14    29.91S
CHARITON *     CLOUDY    79  63  57 S12       29.93R HX  80
DES MOINES     CLOUDY    82  59  45 S9        29.89S HX  82
6HR MIN TEMP:  82; 6HR MAX TEMP:  88;

GRINNELL*      MOSUNNY   84  56  37 S12G18    29.91S HX  83
KNOXVILLE *    CLOUDY    82  61  47 S18G24    29.89S HX  83
MARSHALLTOWN   CLOUDY    78  59  51 W8        29.88F
6HR MIN TEMP:  78; 6HR MAX TEMP:  87;

NEWTON *       MOSUNNY   82  59  44 S15       29.89S HX  82
PELLA *        CLOUDY    84  58  41 S15G21    29.91S HX  83
PERRY *          N/A     67  63  85 E3        29.89S
$$

IAZ004>006-015-016-023>025-035-036-310100-
   NORTH CENTRAL IOWA

CITY           SKY/WX    TMP DP  RH WIND       PRES   REMARKS
ALGONA *       MOSUNNY   75  61  60 E9        29.86F
CLARION *      CLOUDY    75  61  60 S18G28    29.88F
ESTHERVILLE    MOSUNNY   80  58  46 S13G21    29.83F HX  80
6HR MIN TEMP:  77; 6HR MAX TEMP:  83;

FORT DODGE *   CLOUDY    73  55  53 S18G25    29.90R
MASON CITY     CLOUDY    76  56  49 S10       29.92R
6HR MIN TEMP:  76; 6HR MAX TEMP:  83;

FOREST CITY *  HVY RAIN  63  59  88 W14       29.93R
WEBSTER CITY * CLOUDY    73  59  60 SW23G35   29.89R
IOWA FALLS *   LGT RAIN  76  56  50 SW10G20   29.91S
$$

IAZ007>011-017>019-026>030-037>042-050>054-066-310100-
   NORTHEAST IOWA

CITY           SKY/WX    TMP DP  RH WIND       PRES   REMARKS
CEDAR RAPIDS   SUNNY     83  64  52 S12       29.91F HX  84
6HR MIN TEMP:  79; 6HR MAX TEMP:  84;

CHARLES CITY * SUNNY     79  59  50 SE7       29.91S HX  80
CLINTON *      CLOUDY    83  59  44 SW6       29.95S HX  83
DECORAH *      MOSUNNY   79  54  41 SE7       29.93F
DUBUQUE        SUNNY     79  54  41 E7        29.95F
6HR MIN TEMP:  78; 6HR MAX TEMP:  84;

MONTICELLO *   SUNNY     84  59  42 S7        29.93F HX  84
OELWEIN *      MOSUNNY   81  59  47 SE10      29.92S HX  81
WATERLOO       CLOUDY    79  62  56 SE7       29.88S HX  80
6HR MIN TEMP:  77; 6HR MAX TEMP:  83;

$$

IAZ064-065-067-068-078-310100-
   EAST CENTRAL IOWA

CITY           SKY/WX    TMP DP  RH WIND       PRES   REMARKS
DAVENPORT      CLOUDY    83  58  42 SW8       29.95S HX  83
6HR MIN TEMP:  80; 6HR MAX TEMP:  86;

IOWA CITY      CLOUDY    83  63  50 S9        29.93F HX  84
6HR MIN TEMP:  80; 6HR MAX TEMP:  86;

MT. PLEASANT * CLOUDY    82  68  61 S6        29.95S HX  85
MUSCATINE *    MOSUNNY   84  63  48 S10       29.93S HX  85
QUAD CITIES    CLOUDY    85  59  41 SW6       29.94R HX  84
6HR MIN TEMP:  83; 6HR MAX TEMP:  88;

$$

IAZ062-063-075>077-085>089-095>099-310100-
   SOUTHEAST IOWA

CITY           SKY/WX    TMP DP  RH WIND       PRES   REMARKS
BURLINGTON     MOSUNNY   80  65  59 S7        29.95S HX  82
6HR MIN TEMP:  80; 6HR MAX TEMP:  86;

FAIRFIELD *      N/A    N/A N/A N/A MISG        N/A
FORT MADISON * CLOUDY    82  64  54 S6        29.96S HX  84
KEOKUK *       CLOUDY    79  68  69 S5        29.95S HX  81
OSKALOOSA *      N/A     82  61  47 S14       29.92S HX  83
OTTUMWA        MOSUNNY   79  63  57 S8        29.93R HX  80
6HR MIN TEMP:  79; 6HR MAX TEMP:  86;

WASHINGTON *   MOSUNNY   82 -31   1 S13       29.95R
$$

ABBREVIATIONS USED IN REMARKS
   TC - TEMPERATURES IN CELSIUS
  WCI - WIND CHILL INDEX
   HX - HEAT INDEX
  VSB - VISIBILITY
$$





USA.gov is the U.S. government's official web portal to all federal, state and local government web resources and services.